COSMOS 2468

导读

COSMOS 2468(宇宙2468)是独联体(CIS)于2010年9月8日发射的一颗军用卫星,隶属于俄罗斯"宇宙"系列军事卫星家族。该系列卫星主要承担军事侦察、空间环境监测、技术试验等国防任务,通常运行在近地轨道。作为俄罗斯军事航天体系的组成部分,它为战略安全监测和空间技术验证提供支持,延续了苏联/俄罗斯在军用航天领域持续部署的传统,服务于国防和空间态势感知需求。

基本信息
目录编号:
37154
目录名称:
COSMOS 2468
国际标识:
2010-043C
轨道中心:
EARTH
卫星名称:
COSMOS 2468
卫星全名:
--
卫星状态:
在轨 (已飞行5759 天)
发射日期:
2010-09-08 UTC
国别 :
俄罗斯(独联体) (CIS)
星等 :
--
轨道信息
数据来源 国际轨道数据 AOE轨道数据
星历时间 2026-06-14T18:48:52+0800
17小时前
查看轨道信息
2026-06-15T02:00:00+0800
10小时前
查看轨道信息
半长轴 7868.896km 7868.895km
偏心率 0.0014209 0.0014161
轨道倾角 82.461° 82.461°
近地点辐角 318.719° 318.534°
升交点赤经 63.951° 63.764°
平近点角 215.110° 115.209°
近地点 1479.578km 1479.614km
远地点 1501.94km 1501.902km
周期 115.779分钟 115.779分钟
每日圈数 12.437471 12.437473
详细信息
使用方式:
暂无
2D轨道图
3D轨道图
轨道高度分析图
轨道倾角分析图
轨道综合分析图
查看轨道综合分析图